Location: Gro�sch�nbrunn
(49.5760°N, 11.8868°E)
Time: 22:52:06
(UTC+00:00)

KORONAS-FOTON - Pass Details

Date: 18 September 2020
Orbit: 505 x 532 km, 82.4° (Epoch: 30 October)

Event Time Altitude Azimuth Distance (km) Brightness Sun altitude
Rises 19:20:30 0° 349° (N) 2,689 8.0 -19.8°
Reaches altitude 10° 19:22:40 10° 349° (N) 1,795 7.0 -20.1°
Maximum altitude 19:26:37 84° 260° (W) 543 3.8 -20.7°
Enters shadow 19:27:30 52° 179° (S) 666 4.1 -20.8°
